Location: Aghk�ilisa
(40.0189°N, 45.0097°E)
Time: 00:41:05
(UTC+00:00)

Envisat - Pass Details

Date: 21 October 2019
Orbit: 764 x 766 km, 98.1° (Epoch: 11 November)

Event Time Altitude Azimuth Distance (km) Brightness Sun altitude
Rises 15:09:55 0° 169° (S) 3,217 6.2 -11.7°
Reaches altitude 10° 15:12:13 10° 171° (S) 2,295 5.4 -12.1°
Maximum altitude 15:17:17 78° 258° (WSW) 787 3.2 -13.1°
Drops below altitude 10° 15:22:23 10° 344° (NNW) 2,310 5.6 -14.1°
Sets 15:24:42 0° 346° (NNW) 3,241 6.4 -14.5°
